• Em Portugal
  • Lista de países
  • Para 7 dias
  • Temperatura da água
  • Mapas de satélite
  • Mapa do tempo
  • Widgets de tempo
  • user-avatar
    Iniciar Sessão

    Previsão horária em Innsbruck

    Hoje, 26 Setembro, Quarta-feira

    Tempo Temperatura Precipitação Vento Pressão Humidade
    00:00 -2°C° 0 mm 1 m/s 604 mmHg 60%
    01:00 -2°C° 0 mm 1 m/s 605 mmHg 54%
    02:00 -1°C° 0 mm 1 m/s 605 mmHg 49%
    03:00 -3°C° 0 mm 2 m/s 604 mmHg 45%
    04:00 -3°C° 0 mm 2 m/s 604 mmHg 40%
    05:00 -2°C° 0 mm 2 m/s 605 mmHg 39%
    06:00 -2°C° 0 mm 2 m/s 605 mmHg 38%
    07:00 +1°C° 0 mm 1 m/s 605 mmHg 37%
    08:00 +4°C° 0 mm 1 m/s 607 mmHg 32%
    09:00 +8°C° 0 mm 1 m/s 608 mmHg 27%
    10:00 +11°C° 0 mm 1 m/s 610 mmHg 22%
    11:00 +12°C° 0 mm 1 m/s 610 mmHg 22%
    12:00 +13°C° 0 mm 1 m/s 610 mmHg 22%
    13:00 +14°C° 0 mm 1 m/s 610 mmHg 22%
    14:00 +14°C° 0 mm 1 m/s 610 mmHg 26%
    15:00 +13°C° 0 mm 2 m/s 609 mmHg 31%
    16:00 +13°C° 0 mm 2 m/s 609 mmHg 35%
    17:00 +9°C° 0 mm 1 m/s 608 mmHg 47%
    18:00 +6°C° 0 mm 1 m/s 606 mmHg 59%
    19:00 +3°C° 0 mm 1 m/s 605 mmHg 71%
    20:00 +3°C° 0 mm 1 m/s 605 mmHg 66%
    21:00 +3°C° 0 mm 1 m/s 605 mmHg 61%
    22:00 +3°C° 0 mm 1 m/s 605 mmHg 56%
    23:00 +3°C° 0 mm 1 m/s 605 mmHg 53%

    Amanhã, 27 Setembro, Quinta-feira

    Tempo Temperatura Precipitação Vento Pressão Humidade
    00:00 +3°C° 0 mm 1 m/s 605 mmHg 49%
    01:00 +3°C° 0 mm 1 m/s 605 mmHg 45%
    02:00 +3°C° 0 mm 1 m/s 605 mmHg 42%
    03:00 +2°C° 0 mm 1 m/s 604 mmHg 40%
    04:00 +2°C° 0 mm 1 m/s 604 mmHg 37%
    05:00 +3°C° 0 mm 1 m/s 604 mmHg 38%
    06:00 +4°C° 0 mm 1 m/s 605 mmHg 39%
    07:00 +4°C° 0 mm 1 m/s 605 mmHg 40%
    08:00 +7°C° 0 mm 1 m/s 606 mmHg 35%
    09:00 +11°C° 0 mm 1 m/s 607 mmHg 30%
    10:00 +14°C° 0 mm 1 m/s 609 mmHg 26%
    11:00 +15°C° 0 mm 1 m/s 609 mmHg 26%
    12:00 +16°C° 0 mm 1 m/s 609 mmHg 27%
    13:00 +16°C° 0 mm 1 m/s 608 mmHg 27%
    14:00 +16°C° 0 mm 1 m/s 608 mmHg 31%
    15:00 +15°C° 0 mm 1 m/s 607 mmHg 35%
    16:00 +15°C° 0 mm 1 m/s 607 mmHg 39%
    17:00 +12°C° 0 mm 1 m/s 605 mmHg 51%
    18:00 +8°C° 0 mm 1 m/s 603 mmHg 62%
    19:00 +4°C° 0 mm 0 m/s 602 mmHg 74%
    20:00 +5°C° 0 mm 1 m/s 602 mmHg 74%
    21:00 +5°C° 0 mm 1 m/s 602 mmHg 73%
    22:00 +4°C° 0 mm 1 m/s 601 mmHg 73%
    23:00 +4°C° 0 mm 1 m/s 601 mmHg 73%

    Depois de amanhã, 28 Setembro, Sexta-feira

    Tempo Temperatura Precipitação Vento Pressão Humidade
    00:00 +4°C° 0 mm 1 m/s 600 mmHg 72%
    01:00 +4°C° 0 mm 1 m/s 600 mmHg 71%
    02:00 +4°C° 0 mm 1 m/s 600 mmHg 71%
    03:00 +3°C° 0 mm 1 m/s 599 mmHg 70%
    04:00 +3°C° 0 mm 1 m/s 599 mmHg 69%
    05:00 +4°C° 0 mm 1 m/s 599 mmHg 67%
    06:00 +4°C° 0 mm 1 m/s 599 mmHg 65%
    07:00 +4°C° 0 mm 1 m/s 599 mmHg 63%
    08:00 +7°C° 0 mm 1 m/s 600 mmHg 55%
    09:00 +10°C° 0 mm 1 m/s 601 mmHg 46%
    10:00 +13°C° 0 mm 1 m/s 602 mmHg 37%
    11:00 +14°C° 0 mm 1 m/s 602 mmHg 37%
    12:00 +14°C° 0 mm 2 m/s 602 mmHg 37%
    13:00 +15°C° 0 mm 2 m/s 602 mmHg 37%
    14:00 +14°C° 0 mm 2 m/s 601 mmHg 42%
    15:00 +14°C° 0 mm 2 m/s 601 mmHg 47%
    16:00 +13°C° 0 mm 2 m/s 600 mmHg 51%
    17:00 +9°C° 0 mm 2 m/s 599 mmHg 64%
    18:00 +8°C° 0 mm 1 m/s 598 mmHg 77%
    19:00 +5°C° 0 mm 1 m/s 597 mmHg 89%
    20:00 +5°C° 0 mm 1 m/s 597 mmHg 91%
    21:00 +5°C° 0 mm 1 m/s 598 mmHg 92%
    22:00 +5°C° 0 mm 1 m/s 598 mmHg 94%
    23:00 +5°C° 0 mm 1 m/s 598 mmHg 94%

    29 Setembro, Sábado

    Tempo Temperatura Precipitação Vento Pressão Humidade
    00:00 +5°C° 0 mm 1 m/s 598 mmHg 95%
    01:00 +5°C° 0 mm 1 m/s 598 mmHg 95%
    02:00 +5°C° 0.1 mm 1 m/s 598 mmHg 95%
    03:00 +5°C° 0.1 mm 1 m/s 598 mmHg 95%
    04:00 +5°C° 0.1 mm 1 m/s 598 mmHg 95%
    05:00 +3°C° 0.5 mm 2 m/s 598 mmHg 95%
    06:00 +3°C° 0.5 mm 2 m/s 598 mmHg 95%
    07:00 +3°C° 0.5 mm 2 m/s 598 mmHg 95%
    08:00 +3°C° 0.4 mm 2 m/s 598 mmHg 93%
    09:00 +3°C° 0.4 mm 2 m/s 598 mmHg 92%
    10:00 +3°C° 0.4 mm 2 m/s 598 mmHg 90%
    11:00 +3°C° 0.1 mm 2 m/s 598 mmHg 88%
    12:00 +3°C° 0.1 mm 2 m/s 598 mmHg 87%
    13:00 +4°C° 0.1 mm 2 m/s 598 mmHg 85%
    14:00 +4°C° 0 mm 2 m/s 598 mmHg 84%
    15:00 +4°C° 0 mm 2 m/s 598 mmHg 83%
    16:00 +4°C° 0 mm 2 m/s 598 mmHg 82%
    17:00 +3°C° 0 mm 2 m/s 598 mmHg 85%
    18:00 +2°C° 0 mm 2 m/s 598 mmHg 89%
    19:00 +1°C° 0 mm 2 m/s 598 mmHg 92%
    20:00 +1°C° 0 mm 1 m/s 598 mmHg 93%
    21:00 +1°C° 0 mm 1 m/s 598 mmHg 94%
    22:00 0°C° 0 mm 1 m/s 598 mmHg 94%
    23:00 -1°C° 0 mm 1 m/s 598 mmHg 93%

    30 Setembro, Domingo

    Tempo Temperatura Precipitação Vento Pressão Humidade
    00:00 -1°C° 0 mm 1 m/s 597 mmHg 91%
    01:00 -2°C° 0 mm 1 m/s 597 mmHg 89%
    02:00 -2°C° 0 mm 1 m/s 597 mmHg 87%
    03:00 -2°C° 0 mm 1 m/s 596 mmHg 85%
    04:00 -2°C° 0 mm 1 m/s 596 mmHg 83%
    05:00 -1°C° 0 mm 1 m/s 596 mmHg 81%
    06:00 -1°C° 0 mm 1 m/s 597 mmHg 78%
    07:00 0°C° 0 mm 1 m/s 597 mmHg 76%
    08:00 +3°C° 0 mm 1 m/s 598 mmHg 64%
    09:00 +6°C° 0 mm 1 m/s 599 mmHg 52%
    10:00 +9°C° 0 mm 1 m/s 600 mmHg 40%
    11:00 +10°C° 0 mm 1 m/s 600 mmHg 38%
    12:00 +11°C° 0 mm 1 m/s 600 mmHg 36%
    13:00 +12°C° 0 mm 1 m/s 600 mmHg 34%
    14:00 +11°C° 0 mm 1 m/s 600 mmHg 38%
    15:00 +11°C° 0 mm 1 m/s 599 mmHg 43%
    16:00 +10°C° 0 mm 1 m/s 599 mmHg 48%
    17:00 +7°C° 0 mm 1 m/s 598 mmHg 61%
    18:00 +4°C° 0 mm 1 m/s 596 mmHg 75%
    19:00 0°C° 0 mm 0 m/s 595 mmHg 88%
    20:00 +1°C° 0 mm 1 m/s 595 mmHg 88%
    21:00 +1°C° 0 mm 1 m/s 595 mmHg 88%
    22:00 +1°C° 0 mm 1 m/s 595 mmHg 88%
    23:00 +1°C° 0 mm 1 m/s 595 mmHg 89%

    1 Outubro, Segunda-feira

    Tempo Temperatura Precipitação Vento Pressão Humidade
    00:00 +1°C° 0 mm 1 m/s 595 mmHg 89%
    01:00 +1°C° 0 mm 1 m/s 594 mmHg 89%
    02:00 +1°C° 0 mm 1 m/s 594 mmHg 90%
    03:00 +1°C° 0 mm 1 m/s 593 mmHg 90%
    04:00 +1°C° 0 mm 1 m/s 593 mmHg 90%
    05:00 +1°C° 0 mm 1 m/s 593 mmHg 89%
    06:00 +2°C° 0 mm 1 m/s 593 mmHg 88%
    07:00 +2°C° 0 mm 1 m/s 593 mmHg 87%
    08:00 +4°C° 0 mm 1 m/s 594 mmHg 79%
    09:00 +7°C° 0 mm 1 m/s 594 mmHg 70%
    10:00 +8°C° 0 mm 0 m/s 595 mmHg 61%
    11:00 +9°C° 0 mm 1 m/s 595 mmHg 61%
    12:00 +10°C° 0 mm 1 m/s 595 mmHg 60%
    13:00 +10°C° 0 mm 1 m/s 594 mmHg 59%
    14:00 +9°C° 0.4 mm 1 m/s 594 mmHg 66%
    15:00 +9°C° 0.4 mm 1 m/s 593 mmHg 72%
    16:00 +8°C° 0.4 mm 1 m/s 592 mmHg 78%
    17:00 +7°C° 1.2 mm 1 m/s 592 mmHg 84%
    18:00 +5°C° 1.2 mm 1 m/s 591 mmHg 90%
    19:00 +4°C° 1.2 mm 1 m/s 591 mmHg 95%
    20:00 +3°C° 3.2 mm 2 m/s 591 mmHg 96%
    21:00 +2°C° 3.2 mm 2 m/s 591 mmHg 97%
    22:00 +1°C° 3.2 mm 2 m/s 591 mmHg 97%
    23:00 -1°C° 2.3 mm 2 m/s 590 mmHg 97%
    Mostrar mais